| time (UTC) | temp C | wind direction | speed KPH | gust KPH | rain 1hr cm | rain 24hr cm | rain mn cm | humidity % | barometer mb |
| 20260905195420 | 17 | 28 | 1.6 | 3.2 | 0.00 | 0.00 | 0.00 | 62 | 1019.7 |
| 20260905195219 | 17 | 28 | 1.6 | 3.2 | 0.00 | 0.00 | 0.00 | 62 | 1019.6 |
| 20260905195020 | 17 | 49 | 1.6 | 3.2 | 0.00 | 0.00 | 0.00 | 62 | 1019.5 |
| 20260905194819 | 17 | 122 | 3.2 | 3.2 | 0.00 | 0.00 | 0.00 | 62 | 1019.6 |
| 20260905194420 | 17 | 130 | 3.2 | 4.8 | 0.00 | 0.00 | 0.00 | 61 | 1019.6 |
| 20260905194219 | 17 | 126 | 3.2 | 4.8 | 0.00 | 0.00 | 0.00 | 61 | 1019.6 |
| 20260905194020 | 17 | 124 | 1.6 | 4.8 | 0.00 | 0.00 | 0.00 | 61 | 1019.5 |
| 20260905193619 | 17 | 118 | 0.0 | 4.8 | 0.00 | 0.00 | 0.00 | 61 | 1019.5 |
| 20260905193220 | 17 | 118 | 0.0 | 4.8 | 0.00 | 0.00 | 0.00 | 61 | 1019.5 |
| 20260905193019 | 17 | 120 | 0.0 | 3.2 | 0.00 | 0.00 | 0.00 | 60 | 1019.5 |
| 20260905192820 | 17 | 119 | 0.0 | 3.2 | 0.00 | 0.00 | 0.00 | 60 | 1019.4 |
| 20260905192619 | 17 | 0 | 0.0 | 0.0 | 0.00 | 0.00 | 0.00 | 60 | 1019.4 |
| 20260905192419 | 17 | 0 | 0.0 | 0.0 | 0.00 | 0.00 | 0.00 | 60 | 1019.4 |
| 20260905192219 | 18 | 0 | 0.0 | 0.0 | 0.00 | 0.00 | 0.00 | 59 | 1019.5 |
| 20260905192019 | 18 | 0 | 0.0 | 0.0 | 0.00 | 0.00 | 0.00 | 58 | 1019.4 |
| 20260905191820 | 18 | 0 | 0.0 | 0.0 | 0.00 | 0.00 | 0.00 | 58 | 1019.3 |
| 20260905191619 | 18 | 0 | 0.0 | 0.0 | 0.00 | 0.00 | 0.00 | 58 | 1019.3 |
| 20260905191420 | 18 | 0 | 0.0 | 0.0 | 0.00 | 0.00 | 0.00 | 58 | 1019.3 |
| 20260905191220 | 18 | 0 | 0.0 | 0.0 | 0.00 | 0.00 | 0.00 | 58 | 1019.3 |
| 20260905191019 | 18 | 0 | 0.0 | 0.0 | 0.00 | 0.00 | 0.00 | 57 | 1019.2 |
| 20260905190820 | 18 | 192 | 1.6 | 1.6 | 0.00 | 0.00 | 0.00 | 57 | 1019.2 |
| 20260905190619 | 18 | 194 | 1.6 | 3.2 | 0.00 | 0.00 | 0.00 | 56 | 1019.3 |
| 20260905190420 | 18 | 196 | 1.6 | 4.8 | 0.00 | 0.00 | 0.00 | 57 | 1019.2 |
| 20260905190019 | 18 | 198 | 3.2 | 4.8 | 0.00 | 0.00 | 0.00 | 55 | 1019.2 |
| 20260905185619 | 18 | 206 | 3.2 | 4.8 | 0.00 | 0.00 | 0.00 | 54 | 1019.2 |
| 20260905185420 | 19 | 207 | 3.2 | 6.4 | 0.00 | 0.00 | 0.00 | 54 | 1019.1 |
| 20260905185220 | 19 | 208 | 3.2 | 6.4 | 0.00 | 0.00 | 0.00 | 54 | 1019.1 |
| 20260905185019 | 19 | 208 | 3.2 | 6.4 | 0.00 | 0.00 | 0.00 | 54 | 1019.1 |
| 20260905184820 | 19 | 207 | 3.2 | 6.4 | 0.00 | 0.00 | 0.00 | 53 | 1019.0 |
| 20260905184219 | 19 | 207 | 3.2 | 6.4 | 0.00 | 0.00 | 0.00 | 53 | 1018.9 |
| 20260905184020 | 19 | 208 | 3.2 | 6.4 | 0.00 | 0.00 | 0.00 | 52 | 1018.9 |
| 20260905183819 | 19 | 210 | 3.2 | 6.4 | 0.00 | 0.00 | 0.00 | 52 | 1018.9 |
| 20260905183620 | 19 | 213 | 3.2 | 6.4 | 0.00 | 0.00 | 0.00 | 52 | 1018.8 |
| 20260905183419 | 19 | 216 | 3.2 | 6.4 | 0.00 | 0.00 | 0.00 | 52 | 1018.9 |
| 20260905183220 | 19 | 218 | 1.6 | 6.4 | 0.00 | 0.00 | 0.00 | 52 | 1018.9 |
| 20260905183019 | 19 | 219 | 1.6 | 6.4 | 0.00 | 0.00 | 0.00 | 52 | 1018.9 |
| 20260905182820 | 19 | 222 | 1.6 | 6.4 | 0.00 | 0.00 | 0.00 | 52 | 1018.9 |
| 20260905182420 | 20 | 231 | 1.6 | 6.4 | 0.00 | 0.00 | 0.00 | 51 | 1018.9 |
| 20260905181819 | 20 | 246 | 3.2 | 8.0 | 0.00 | 0.00 | 0.00 | 50 | 1018.8 |
| 20260905181619 | 20 | 246 | 3.2 | 8.0 | 0.00 | 0.00 | 0.00 | 50 | 1018.7 |
| 20260905181420 | 20 | 249 | 4.8 | 8.0 | 0.00 | 0.00 | 0.00 | 49 | 1018.7 |
| 20260905181219 | 20 | 250 | 4.8 | 8.0 | 0.00 | 0.00 | 0.00 | 49 | 1018.7 |
| 20260905181020 | 20 | 254 | 4.8 | 9.7 | 0.00 | 0.00 | 0.00 | 49 | 1018.7 |
| 20260905180819 | 20 | 257 | 4.8 | 9.7 | 0.00 | 0.00 | 0.00 | 48 | 1018.7 |
| 20260905180620 | 20 | 260 | 4.8 | 9.7 | 0.00 | 0.00 | 0.00 | 49 | 1018.7 |
| 20260905180419 | 20 | 261 | 4.8 | 9.7 | 0.00 | 0.00 | 0.00 | 48 | 1018.6 |
| 20260905180219 | 20 | 261 | 4.8 | 9.7 | 0.00 | 0.00 | 0.00 | 48 | 1018.6 |
| 20260905180019 | 20 | 260 | 4.8 | 9.7 | 0.00 | 0.00 | 0.00 | 48 | 1018.6 |
| 20260905175820 | 21 | 260 | 4.8 | 9.7 | 0.00 | 0.00 | 0.00 | 48 | 1018.5 |
| 20260905175619 | 21 | 258 | 4.8 | 9.7 | 0.00 | 0.00 | 0.00 | 48 | 1018.5 |
| 20260905175419 | 21 | 259 | 4.8 | 9.7 | 0.00 | 0.00 | 0.00 | 47 | 1018.5 |
| 20260905175219 | 21 | 260 | 6.4 | 9.7 | 0.00 | 0.00 | 0.00 | 47 | 1018.5 |
| 20260905175019 | 21 | 261 | 6.4 | 9.7 | 0.00 | 0.00 | 0.00 | 47 | 1018.4 |
| 20260905174619 | 21 | 260 | 8.0 | 12.9 | 0.00 | 0.00 | 0.00 | 46 | 1018.4 |
| 20260905174419 | 21 | 261 | 9.7 | 16.1 | 0.00 | 0.00 | 0.00 | 46 | 1018.4 |
| 20260905174219 | 21 | 262 | 9.7 | 16.1 | 0.00 | 0.00 | 0.00 | 46 | 1018.3 |
| 20260905174019 | 21 | 256 | 11.3 | 16.1 | 0.00 | 0.00 | 0.00 | 46 | 1018.3 |
| 20260905173819 | 21 | 253 | 11.3 | 16.1 | 0.00 | 0.00 | 0.00 | 45 | 1018.2 |
| 20260905173619 | 21 | 249 | 11.3 | 16.1 | 0.00 | 0.00 | 0.00 | 45 | 1018.3 |
| 20260905173420 | 21 | 242 | 11.3 | 20.9 | 0.00 | 0.00 | 0.00 | 45 | 1018.3 |
| 20260905173221 | 22 | 237 | 11.3 | 20.9 | 0.00 | 0.00 | 0.00 | 45 | 1018.2 |
| 20260905172819 | 22 | 238 | 12.9 | 20.9 | 0.00 | 0.00 | 0.00 | 45 | 1018.2 |
| 20260905172619 | 22 | 237 | 12.9 | 20.9 | 0.00 | 0.00 | 0.00 | 45 | 1018.2 |
| 20260905172419 | 22 | 245 | 12.9 | 20.9 | 0.00 | 0.00 | 0.00 | 44 | 1018.2 |
| 20260905172219 | 22 | 252 | 12.9 | 20.9 | 0.00 | 0.00 | 0.00 | 45 | 1018.2 |
| 20260905172019 | 22 | 260 | 12.9 | 20.9 | 0.00 | 0.00 | 0.00 | 44 | 1018.1 |
| 20260905171820 | 22 | 265 | 12.9 | 20.9 | 0.00 | 0.00 | 0.00 | 44 | 1018.1 |
| 20260905171619 | 22 | 270 | 14.5 | 19.3 | 0.00 | 0.00 | 0.00 | 44 | 1018.2 |
| 20260905171421 | 22 | 268 | 14.5 | 22.5 | 0.00 | 0.00 | 0.00 | 44 | 1018.2 |
| 20260905171219 | 22 | 267 | 16.1 | 24.1 | 0.00 | 0.00 | 0.00 | 44 | 1018.2 |
| 20260905171019 | 22 | 267 | 16.1 | 24.1 | 0.00 | 0.00 | 0.00 | 44 | 1018.1 |
| 20260905170819 | 22 | 267 | 16.1 | 27.4 | 0.00 | 0.00 | 0.00 | 44 | 1018.1 |
| 20260905170620 | 22 | 269 | 14.5 | 27.4 | 0.00 | 0.00 | 0.00 | 43 | 1018.2 |
| 20260905170419 | 22 | 269 | 14.5 | 27.4 | 0.00 | 0.00 | 0.00 | 43 | 1018.2 |
| 20260905170020 | 22 | 270 | 12.9 | 27.4 | 0.00 | 0.00 | 0.00 | 43 | 1018.0 |
| 20260905165619 | 22 | 270 | 12.9 | 27.4 | 0.00 | 0.00 | 0.00 | 43 | 1018.0 |
| 20260905165420 | 22 | 267 | 14.5 | 19.3 | 0.00 | 0.00 | 0.00 | 43 | 1018.0 |
| 20260905165019 | 22 | 262 | 16.1 | 20.9 | 0.00 | 0.00 | 0.00 | 43 | 1018.0 |
| 20260905164819 | 22 | 262 | 16.1 | 24.1 | 0.00 | 0.00 | 0.00 | 42 | 1018.0 |
| 20260905164420 | 23 | 266 | 17.7 | 25.7 | 0.00 | 0.00 | 0.00 | 42 | 1017.8 |
| 20260905164220 | 23 | 270 | 17.7 | 27.4 | 0.00 | 0.00 | 0.00 | 42 | 1017.8 |
| 20260905164020 | 23 | 270 | 17.7 | 27.4 | 0.00 | 0.00 | 0.00 | 42 | 1017.8 |
| 20260905163819 | 23 | 268 | 17.7 | 27.4 | 0.00 | 0.00 | 0.00 | 42 | 1017.8 |
| 20260905163421 | 23 | 269 | 17.7 | 27.4 | 0.00 | 0.00 | 0.00 | 42 | 1017.8 |
| 20260905163220 | 23 | 268 | 17.7 | 30.6 | 0.00 | 0.00 | 0.00 | 42 | 1017.8 |
| 20260905163020 | 23 | 268 | 17.7 | 30.6 | 0.00 | 0.00 | 0.00 | 41 | 1017.8 |
| 20260905162819 | 23 | 268 | 17.7 | 30.6 | 0.00 | 0.00 | 0.00 | 41 | 1017.6 |
| 20260905162620 | 23 | 269 | 19.3 | 30.6 | 0.00 | 0.00 | 0.00 | 41 | 1017.6 |
| 20260905162419 | 23 | 269 | 19.3 | 32.2 | 0.00 | 0.00 | 0.00 | 41 | 1017.7 |
| 20260905162219 | 23 | 269 | 19.3 | 32.2 | 0.00 | 0.00 | 0.00 | 41 | 1017.7 |
| 20260905161419 | 23 | 264 | 17.7 | 32.2 | 0.00 | 0.00 | 0.00 | 41 | 1017.6 |
| 20260905161219 | 23 | 265 | 16.1 | 32.2 | 0.00 | 0.00 | 0.00 | 41 | 1017.6 |
| 20260905161019 | 23 | 268 | 16.1 | 32.2 | 0.00 | 0.00 | 0.00 | 40 | 1017.5 |
| 20260905160819 | 23 | 270 | 17.7 | 29.0 | 0.00 | 0.00 | 0.00 | 41 | 1017.5 |
| 20260905160619 | 24 | 270 | 17.7 | 29.0 | 0.00 | 0.00 | 0.00 | 40 | 1017.4 |
| 20260905160219 | 24 | 270 | 19.3 | 24.1 | 0.00 | 0.00 | 0.00 | 40 | 1017.4 |
| 20260905160019 | 24 | 270 | 19.3 | 27.4 | 0.00 | 0.00 | 0.00 | 40 | 1017.4 |
| 20260905155819 | 24 | 270 | 19.3 | 35.4 | 0.00 | 0.00 | 0.00 | 40 | 1017.4 |
| 20260905155620 | 24 | 273 | 19.3 | 35.4 | 0.00 | 0.00 | 0.00 | 40 | 1017.3 |
| 20260905155420 | 24 | 273 | 20.9 | 35.4 | 0.00 | 0.00 | 0.00 | 40 | 1017.3 |
| 20260905155019 | 24 | 272 | 19.3 | 35.4 | 0.00 | 0.00 | 0.00 | 39 | 1017.2 |
| 20260905154819 | 24 | 272 | 19.3 | 32.2 | 0.00 | 0.00 | 0.00 | 39 | 1017.1 |
| 20260905154619 | 24 | 271 | 19.3 | 32.2 | 0.00 | 0.00 | 0.00 | 40 | 1017.2 |
| 20260905154219 | 24 | 268 | 16.1 | 32.2 | 0.00 | 0.00 | 0.00 | 39 | 1017.1 |
| 20260905153819 | 24 | 262 | 16.1 | 27.4 | 0.00 | 0.00 | 0.00 | 40 | 1017.1 |
| 20260905153619 | 24 | 261 | 16.1 | 27.4 | 0.00 | 0.00 | 0.00 | 39 | 1017.1 |
| 20260905153419 | 25 | 262 | 16.1 | 29.0 | 0.00 | 0.00 | 0.00 | 39 | 1017.1 |
| 20260905153219 | 25 | 263 | 16.1 | 29.0 | 0.00 | 0.00 | 0.00 | 39 | 1017.0 |
| 20260905153019 | 25 | 263 | 16.1 | 29.0 | 0.00 | 0.00 | 0.00 | 39 | 1017.0 |
| 20260905152819 | 24 | 264 | 17.7 | 29.0 | 0.00 | 0.00 | 0.00 | 39 | 1017.0 |
| 20260905152619 | 24 | 263 | 17.7 | 29.0 | 0.00 | 0.00 | 0.00 | 39 | 1017.0 |
| 20260905152420 | 24 | 263 | 17.7 | 29.0 | 0.00 | 0.00 | 0.00 | 39 | 1017.0 |
| 20260905152219 | 24 | 263 | 19.3 | 29.0 | 0.00 | 0.00 | 0.00 | 39 | 1017.0 |
| 20260905152019 | 24 | 267 | 19.3 | 29.0 | 0.00 | 0.00 | 0.00 | 39 | 1017.0 |
| 20260905151619 | 25 | 270 | 19.3 | 29.0 | 0.00 | 0.00 | 0.00 | 39 | 1017.1 |
| 20260905151419 | 25 | 271 | 19.3 | 29.0 | 0.00 | 0.00 | 0.00 | 39 | 1017.1 |
| 20260905151219 | 25 | 270 | 17.7 | 29.0 | 0.00 | 0.00 | 0.00 | 38 | 1017.1 |
| 20260905151019 | 25 | 269 | 16.1 | 29.0 | 0.00 | 0.00 | 0.00 | 38 | 1017.0 |
| 20260905150819 | 25 | 268 | 16.1 | 29.0 | 0.00 | 0.00 | 0.00 | 38 | 1017.1 |
| 20260905150620 | 25 | 268 | 14.5 | 29.0 | 0.00 | 0.00 | 0.00 | 38 | 1017.2 |
| 20260905150419 | 25 | 267 | 14.5 | 29.0 | 0.00 | 0.00 | 0.00 | 38 | 1017.2 |
| 20260905150219 | 25 | 268 | 14.5 | 29.0 | 0.00 | 0.00 | 0.00 | 38 | 1017.1 |
| 20260905150019 | 25 | 266 | 16.1 | 29.0 | 0.00 | 0.00 | 0.00 | 38 | 1017.1 |
| 20260905145819 | 25 | 261 | 16.1 | 29.0 | 0.00 | 0.00 | 0.00 | 39 | 1017.1 |
| 20260905145419 | 25 | 261 | 16.1 | 27.4 | 0.00 | 0.00 | 0.00 | 39 | 1017.2 |
| 20260905145219 | 25 | 259 | 16.1 | 27.4 | 0.00 | 0.00 | 0.00 | 39 | 1017.1 |
| 20260905145019 | 25 | 262 | 16.1 | 27.4 | 0.00 | 0.00 | 0.00 | 38 | 1017.1 |
| 20260905144819 | 25 | 265 | 17.7 | 32.2 | 0.00 | 0.00 | 0.00 | 39 | 1017.0 |
| 20260905144619 | 25 | 265 | 17.7 | 32.2 | 0.00 | 0.00 | 0.00 | 38 | 1017.1 |
| 20260905144419 | 25 | 267 | 19.3 | 32.2 | 0.00 | 0.00 | 0.00 | 39 | 1017.2 |
| 20260905144219 | 25 | 268 | 19.3 | 32.2 | 0.00 | 0.00 | 0.00 | 39 | 1017.1 |
| 20260905144020 | 25 | 268 | 17.7 | 32.2 | 0.00 | 0.00 | 0.00 | 38 | 1017.3 |
| 20260905143420 | 25 | 265 | 16.1 | 30.6 | 0.00 | 0.00 | 0.00 | 38 | 1017.1 |
| 20260905143219 | 25 | 265 | 14.5 | 30.6 | 0.00 | 0.00 | 0.00 | 38 | 1017.1 |
| 20260905143019 | 25 | 263 | 14.5 | 30.6 | 0.00 | 0.00 | 0.00 | 38 | 1017.2 |
| 20260905142820 | 25 | 260 | 14.5 | 30.6 | 0.00 | 0.00 | 0.00 | 38 | 1017.1 |
| 20260905142619 | 25 | 252 | 14.5 | 25.7 | 0.00 | 0.00 | 0.00 | 38 | 1017.0 |
| 20260905142419 | 25 | 255 | 14.5 | 24.1 | 0.00 | 0.00 | 0.00 | 39 | 1017.1 |
| 20260905142019 | 25 | 252 | 16.1 | 24.1 | 0.00 | 0.00 | 0.00 | 39 | 1017.0 |
| 20260905141819 | 25 | 259 | 17.7 | 27.4 | 0.00 | 0.00 | 0.00 | 39 | 1017.0 |
| 20260905141619 | 25 | 267 | 17.7 | 33.8 | 0.00 | 0.00 | 0.00 | 39 | 1017.0 |
| 20260905141419 | 25 | 269 | 17.7 | 38.6 | 0.00 | 0.00 | 0.00 | 39 | 1017.1 |
| 20260905141219 | 25 | 272 | 17.7 | 38.6 | 0.00 | 0.00 | 0.00 | 39 | 1017.1 |
| 20260905141019 | 25 | 272 | 17.7 | 38.6 | 0.00 | 0.00 | 0.00 | 39 | 1017.1 |
| 20260905140820 | 25 | 270 | 16.1 | 38.6 | 0.00 | 0.00 | 0.00 | 39 | 1017.2 |
| 20260905140619 | 25 | 269 | 16.1 | 38.6 | 0.00 | 0.00 | 0.00 | 38 | 1017.2 |
| 20260905140219 | 25 | 267 | 14.5 | 27.4 | 0.00 | 0.00 | 0.00 | 39 | 1017.2 |
| 20260905140020 | 25 | 265 | 14.5 | 27.4 | 0.00 | 0.00 | 0.00 | 39 | 1017.2 |
| 20260905135819 | 25 | 265 | 14.5 | 27.4 | 0.00 | 0.00 | 0.00 | 39 | 1017.2 |
| 20260905135419 | 25 | 260 | 14.5 | 29.0 | 0.00 | 0.00 | 0.00 | 40 | 1017.2 |
| 20260905135219 | 25 | 256 | 14.5 | 29.0 | 0.00 | 0.00 | 0.00 | 40 | 1017.2 |
| 20260905135019 | 25 | 257 | 14.5 | 29.0 | 0.00 | 0.00 | 0.00 | 40 | 1017.2 |
| 20260905134819 | 25 | 259 | 14.5 | 29.0 | 0.00 | 0.00 | 0.00 | 40 | 1017.2 |
| 20260905134419 | 25 | 257 | 16.1 | 25.7 | 0.00 | 0.00 | 0.00 | 40 | 1017.2 |
| 20260905134219 | 25 | 259 | 16.1 | 25.7 | 0.00 | 0.00 | 0.00 | 41 | 1017.3 |
| 20260905134019 | 25 | 265 | 16.1 | 32.2 | 0.00 | 0.00 | 0.00 | 42 | 1017.3 |
| 20260905133820 | 25 | 267 | 16.1 | 32.2 | 0.00 | 0.00 | 0.00 | 41 | 1017.3 |
| 20260905133620 | 25 | 270 | 16.1 | 32.2 | 0.00 | 0.00 | 0.00 | 42 | 1017.3 |
| 20260905133419 | 25 | 276 | 17.7 | 32.2 | 0.00 | 0.00 | 0.00 | 41 | 1017.3 |
| 20260905133220 | 25 | 277 | 17.7 | 32.2 | 0.00 | 0.00 | 0.00 | 41 | 1017.3 |
| 20260905133019 | 25 | 279 | 17.7 | 27.4 | 0.00 | 0.00 | 0.00 | 43 | 1017.3 |
| 20260905132820 | 25 | 274 | 17.7 | 33.8 | 0.00 | 0.00 | 0.00 | 43 | 1017.2 |
| 20260905132620 | 25 | 271 | 17.7 | 33.8 | 0.00 | 0.00 | 0.00 | 44 | 1017.2 |
| 20260905132419 | 25 | 270 | 17.7 | 33.8 | 0.00 | 0.00 | 0.00 | 44 | 1017.3 |
| 20260905132219 | 25 | 269 | 17.7 | 33.8 | 0.00 | 0.00 | 0.00 | 44 | 1017.3 |
| 20260905132019 | 24 | 266 | 17.7 | 33.8 | 0.00 | 0.00 | 0.00 | 44 | 1017.2 |
| 20260905131819 | 24 | 264 | 17.7 | 29.0 | 0.00 | 0.00 | 0.00 | 44 | 1017.3 |
| 20260905131619 | 24 | 263 | 17.7 | 29.0 | 0.00 | 0.00 | 0.00 | 44 | 1017.3 |
| 20260905131419 | 24 | 261 | 17.7 | 29.0 | 0.00 | 0.00 | 0.00 | 44 | 1017.4 |
| 20260905131218 | 24 | 262 | 17.7 | 29.0 | 0.00 | 0.00 | 0.00 | 43 | 1017.4 |
| 20260905131019 | 25 | 260 | 17.7 | 27.4 | 0.00 | 0.00 | 0.00 | 43 | 1017.3 |
| 20260905130819 | 25 | 263 | 17.7 | 30.6 | 0.00 | 0.00 | 0.00 | 43 | 1017.3 |
| 20260905130619 | 25 | 266 | 17.7 | 30.6 | 0.00 | 0.00 | 0.00 | 43 | 1017.4 |
| 20260905130420 | 25 | 267 | 17.7 | 30.6 | 0.00 | 0.00 | 0.00 | 43 | 1017.3 |
| 20260905130219 | 25 | 269 | 16.1 | 30.6 | 0.00 | 0.00 | 0.00 | 43 | 1017.4 |
| 20260905130019 | 25 | 271 | 16.1 | 30.6 | 0.00 | 0.00 | 0.00 | 43 | 1017.4 |
| 20260905125819 | 25 | 272 | 16.1 | 30.6 | 0.00 | 0.00 | 0.00 | 43 | 1017.4 |
| 20260905125619 | 25 | 271 | 14.5 | 29.0 | 0.00 | 0.00 | 0.00 | 43 | 1017.4 |
| 20260905125419 | 25 | 269 | 14.5 | 29.0 | 0.00 | 0.00 | 0.00 | 43 | 1017.3 |
| 20260905125019 | 24 | 259 | 16.1 | 29.0 | 0.00 | 0.00 | 0.00 | 45 | 1017.4 |
| 20260905124818 | 24 | 259 | 16.1 | 27.4 | 0.00 | 0.00 | 0.00 | 45 | 1017.4 |
| 20260905124619 | 24 | 259 | 17.7 | 27.4 | 0.00 | 0.00 | 0.00 | 46 | 1017.4 |
| 20260905124420 | 24 | 263 | 17.7 | 27.4 | 0.00 | 0.00 | 0.00 | 45 | 1017.4 |
| 20260905124219 | 24 | 265 | 17.7 | 27.4 | 0.00 | 0.00 | 0.00 | 46 | 1017.4 |
| 20260905124019 | 24 | 267 | 17.7 | 27.4 | 0.00 | 0.00 | 0.00 | 47 | 1017.4 |
| 20260905123619 | 24 | 270 | 16.1 | 29.0 | 0.00 | 0.00 | 0.00 | 49 | 1017.5 |
| 20260905123218 | 24 | 271 | 16.1 | 29.0 | 0.00 | 0.00 | 0.00 | 50 | 1017.6 |
| 20260905122819 | 23 | 274 | 14.5 | 25.7 | 0.00 | 0.00 | 0.00 | 52 | 1017.6 |
| 20260905122619 | 23 | 270 | 14.5 | 25.7 | 0.00 | 0.00 | 0.00 | 53 | 1017.6 |
| 20260905122419 | 23 | 270 | 12.9 | 25.7 | 0.00 | 0.00 | 0.00 | 54 | 1017.6 |
| 20260905122219 | 23 | 268 | 12.9 | 22.5 | 0.00 | 0.00 | 0.00 | 56 | 1017.7 |
| 20260905122019 | 23 | 266 | 11.3 | 22.5 | 0.00 | 0.00 | 0.00 | 55 | 1017.6 |
| 20260905121819 | 23 | 264 | 11.3 | 24.1 | 0.00 | 0.00 | 0.00 | 55 | 1017.7 |
| 20260905121619 | 23 | 261 | 11.3 | 24.1 | 0.00 | 0.00 | 0.00 | 55 | 1017.8 |
| 20260905121419 | 23 | 261 | 11.3 | 24.1 | 0.00 | 0.00 | 0.00 | 55 | 1017.8 |
| 20260905121219 | 23 | 262 | 12.9 | 24.1 | 0.00 | 0.00 | 0.00 | 55 | 1017.9 |
| 20260905121019 | 23 | 260 | 12.9 | 24.1 | 0.00 | 0.00 | 0.00 | 55 | 1017.8 |
| 20260905120619 | 23 | 270 | 14.5 | 22.5 | 0.00 | 0.00 | 0.00 | 53 | 1017.8 |
| 20260905120418 | 23 | 271 | 14.5 | 29.0 | 0.00 | 0.00 | 0.00 | 54 | 1017.8 |
| 20260905120219 | 23 | 270 | 14.5 | 29.0 | 0.00 | 0.00 | 0.00 | 55 | 1017.9 |
| 20260905120018 | 22 | 270 | 14.5 | 29.0 | 0.00 | 0.00 | 0.00 | 54 | 1017.8 |
| 20260905115819 | 23 | 264 | 14.5 | 29.0 | 0.00 | 0.00 | 0.00 | 53 | 1017.8 |
| 20260905115618 | 23 | 262 | 14.5 | 29.0 | 0.00 | 0.00 | 0.00 | 54 | 1017.8 |
| 20260905115420 | 23 | 260 | 14.5 | 27.4 | 0.00 | 0.00 | 0.00 | 53 | 1017.9 |
| 20260905115219 | 23 | 257 | 14.5 | 27.4 | 0.00 | 0.00 | 0.00 | 53 | 1017.9 |
| 20260905114819 | 23 | 267 | 16.1 | 27.4 | 0.00 | 0.00 | 0.00 | 53 | 1017.9 |
| 20260905114619 | 23 | 269 | 16.1 | 24.1 | 0.00 | 0.00 | 0.00 | 54 | 1018.0 |
| 20260905114419 | 23 | 270 | 16.1 | 29.0 | 0.00 | 0.00 | 0.00 | 54 | 1018.0 |
| 20260905114219 | 23 | 270 | 16.1 | 29.0 | 0.00 | 0.00 | 0.00 | 54 | 1018.0 |
| 20260905114019 | 23 | 270 | 16.1 | 29.0 | 0.00 | 0.00 | 0.00 | 54 | 1017.9 |
| 20260905113819 | 23 | 266 | 16.1 | 29.0 | 0.00 | 0.00 | 0.00 | 54 | 1018.0 |
| 20260905113620 | 23 | 264 | 16.1 | 33.8 | 0.00 | 0.00 | 0.00 | 54 | 1018.0 |
| 20260905113418 | 23 | 264 | 14.5 | 33.8 | 0.00 | 0.00 | 0.00 | 54 | 1018.0 |
| 20260905113219 | 23 | 265 | 14.5 | 33.8 | 0.00 | 0.00 | 0.00 | 55 | 1018.1 |
| 20260905113020 | 23 | 267 | 14.5 | 33.8 | 0.00 | 0.00 | 0.00 | 53 | 1018.0 |
| 20260905112818 | 23 | 269 | 14.5 | 33.8 | 0.00 | 0.00 | 0.00 | 54 | 1018.1 |
| 20260905112619 | 23 | 273 | 14.5 | 29.0 | 0.00 | 0.00 | 0.00 | 53 | 1018.1 |
| 20260905112219 | 23 | 276 | 16.1 | 27.4 | 0.00 | 0.00 | 0.00 | 56 | 1018.1 |
| 20260905111619 | 23 | 277 | 16.1 | 27.4 | 0.00 | 0.00 | 0.00 | 55 | 1018.2 |
| 20260905111419 | 22 | 278 | 16.1 | 24.1 | 0.00 | 0.00 | 0.00 | 55 | 1018.1 |
| 20260905111219 | 22 | 274 | 16.1 | 24.1 | 0.00 | 0.00 | 0.00 | 54 | 1018.2 |
| 20260905111019 | 22 | 273 | 16.1 | 30.6 | 0.00 | 0.00 | 0.00 | 55 | 1018.1 |
| 20260905110818 | 22 | 272 | 14.5 | 30.6 | 0.00 | 0.00 | 0.00 | 55 | 1018.2 |
| 20260905110619 | 22 | 271 | 14.5 | 30.6 | 0.00 | 0.00 | 0.00 | 55 | 1018.2 |
| 20260905110419 | 22 | 271 | 12.9 | 30.6 | 0.00 | 0.00 | 0.00 | 54 | 1018.1 |
| 20260905110220 | 22 | 272 | 12.9 | 30.6 | 0.00 | 0.00 | 0.00 | 54 | 1018.2 |
| 20260905110019 | 22 | 270 | 11.3 | 25.7 | 0.00 | 0.00 | 0.00 | 54 | 1018.2 |
| 20260905105619 | 22 | 261 | 11.3 | 24.1 | 0.00 | 0.00 | 0.00 | 55 | 1018.3 |
| 20260905105218 | 22 | 251 | 11.3 | 24.1 | 0.00 | 0.00 | 0.00 | 54 | 1018.4 |
| 20260905105019 | 22 | 249 | 11.3 | 24.1 | 0.00 | 0.00 | 0.00 | 56 | 1018.4 |
| 20260905104819 | 22 | 251 | 11.3 | 24.1 | 0.00 | 0.00 | 0.00 | 56 | 1018.3 |
| 20260905104419 | 22 | 261 | 11.3 | 24.1 | 0.00 | 0.00 | 0.00 | 57 | 1018.3 |
| 20260905104219 | 22 | 261 | 11.3 | 20.9 | 0.00 | 0.00 | 0.00 | 57 | 1018.3 |
| 20260905104018 | 22 | 262 | 11.3 | 20.9 | 0.00 | 0.00 | 0.00 | 57 | 1018.3 |
| 20260905103619 | 21 | 259 | 12.9 | 22.5 | 0.00 | 0.00 | 0.00 | 58 | 1018.3 |
| 20260905103420 | 21 | 259 | 12.9 | 22.5 | 0.00 | 0.00 | 0.00 | 58 | 1018.3 |
| 20260905103219 | 21 | 261 | 12.9 | 22.5 | 0.00 | 0.00 | 0.00 | 59 | 1018.3 |
| 20260905103019 | 21 | 262 | 12.9 | 24.1 | 0.00 | 0.00 | 0.00 | 59 | 1018.3 |
| 20260905102819 | 21 | 263 | 12.9 | 24.1 | 0.00 | 0.00 | 0.00 | 59 | 1018.4 |
| 20260905102618 | 21 | 266 | 12.9 | 24.1 | 0.00 | 0.00 | 0.00 | 60 | 1018.4 |
| 20260905102419 | 21 | 267 | 12.9 | 24.1 | 0.00 | 0.00 | 0.00 | 60 | 1018.3 |
| 20260905102219 | 21 | 267 | 12.9 | 24.1 | 0.00 | 0.00 | 0.00 | 58 | 1018.3 |
| 20260905102019 | 21 | 264 | 12.9 | 20.9 | 0.00 | 0.00 | 0.00 | 58 | 1018.4 |
| 20260905101619 | 21 | 264 | 12.9 | 22.5 | 0.00 | 0.00 | 0.00 | 60 | 1018.3 |
| 20260905101419 | 21 | 261 | 11.3 | 22.5 | 0.00 | 0.00 | 0.00 | 61 | 1018.4 |
| 20260905101218 | 21 | 260 | 11.3 | 22.5 | 0.00 | 0.00 | 0.00 | 61 | 1018.3 |
| 20260905101019 | 21 | 258 | 11.3 | 22.5 | 0.00 | 0.00 | 0.00 | 61 | 1018.3 |
| 20260905100818 | 21 | 256 | 11.3 | 20.9 | 0.00 | 0.00 | 0.00 | 60 | 1018.3 |
| 20260905100619 | 21 | 256 | 11.3 | 20.9 | 0.00 | 0.00 | 0.00 | 61 | 1018.4 |
| 20260905100019 | 21 | 258 | 11.3 | 20.9 | 0.00 | 0.00 | 0.00 | 64 | 1018.4 |
| 20260905095819 | 20 | 258 | 12.9 | 20.9 | 0.00 | 0.00 | 0.00 | 64 | 1018.4 |
| 20260905095619 | 20 | 262 | 12.9 | 20.9 | 0.00 | 0.00 | 0.00 | 64 | 1018.4 |
| 20260905095419 | 20 | 268 | 12.9 | 20.9 | 0.00 | 0.00 | 0.00 | 64 | 1018.3 |
| 20260905095218 | 20 | 270 | 12.9 | 22.5 | 0.00 | 0.00 | 0.00 | 65 | 1018.4 |
| 20260905094819 | 20 | 271 | 11.3 | 22.5 | 0.00 | 0.00 | 0.00 | 64 | 1018.4 |
| 20260905094619 | 20 | 268 | 11.3 | 22.5 | 0.00 | 0.00 | 0.00 | 64 | 1018.4 |
| 20260905094419 | 20 | 264 | 11.3 | 22.5 | 0.00 | 0.00 | 0.00 | 64 | 1018.4 |
| 20260905094219 | 20 | 261 | 11.3 | 20.9 | 0.00 | 0.00 | 0.00 | 65 | 1018.4 |
| 20260905094019 | 20 | 266 | 11.3 | 19.3 | 0.00 | 0.00 | 0.00 | 66 | 1018.5 |
| 20260905093819 | 20 | 266 | 9.7 | 19.3 | 0.00 | 0.00 | 0.00 | 65 | 1018.5 |
| 20260905093219 | 20 | 266 | 9.7 | 19.3 | 0.00 | 0.00 | 0.00 | 64 | 1018.5 |
| 20260905092818 | 20 | 265 | 11.3 | 19.3 | 0.00 | 0.00 | 0.00 | 65 | 1018.5 |
| 20260905092418 | 20 | 269 | 12.9 | 17.7 | 0.00 | 0.00 | 0.00 | 67 | 1018.7 |
| 20260905092219 | 20 | 270 | 14.5 | 19.3 | 0.00 | 0.00 | 0.00 | 67 | 1018.8 |
| 20260905091819 | 19 | 271 | 14.5 | 22.5 | 0.00 | 0.00 | 0.00 | 68 | 1018.8 |
| 20260905091619 | 19 | 270 | 12.9 | 22.5 | 0.00 | 0.00 | 0.00 | 68 | 1018.8 |
| 20260905091419 | 19 | 270 | 12.9 | 22.5 | 0.00 | 0.00 | 0.00 | 68 | 1018.8 |
| 20260905091219 | 19 | 269 | 11.3 | 22.5 | 0.00 | 0.00 | 0.00 | 68 | 1018.8 |
| 20260905091019 | 19 | 270 | 11.3 | 20.9 | 0.00 | 0.00 | 0.00 | 67 | 1018.9 |
| 20260905090819 | 19 | 266 | 9.7 | 20.9 | 0.00 | 0.00 | 0.00 | 68 | 1018.9 |
| 20260905090619 | 19 | 266 | 9.7 | 20.9 | 0.00 | 0.00 | 0.00 | 69 | 1019.0 |
| 20260905090218 | 18 | 263 | 9.7 | 19.3 | 0.00 | 0.00 | 0.00 | 70 | 1019.0 |
| 20260905090019 | 18 | 261 | 9.7 | 17.7 | 0.00 | 0.00 | 0.00 | 70 | 1019.1 |
| 20260905085618 | 18 | 265 | 9.7 | 17.7 | 0.00 | 0.00 | 0.00 | 71 | 1019.2 |
| 20260905085419 | 18 | 264 | 9.7 | 17.7 | 0.00 | 0.00 | 0.00 | 72 | 1019.2 |
| 20260905085219 | 18 | 265 | 9.7 | 16.1 | 0.00 | 0.00 | 0.00 | 72 | 1019.3 |
| 20260905085019 | 18 | 262 | 8.0 | 16.1 | 0.00 | 0.00 | 0.00 | 73 | 1019.3 |
| 20260905084819 | 18 | 262 | 8.0 | 16.1 | 0.00 | 0.00 | 0.00 | 73 | 1019.3 |
| 20260905084619 | 18 | 263 | 8.0 | 16.1 | 0.00 | 0.00 | 0.00 | 73 | 1019.2 |
| 20260905084419 | 17 | 265 | 8.0 | 16.1 | 0.00 | 0.00 | 0.00 | 73 | 1019.2 |
| 20260905084218 | 17 | 267 | 8.0 | 14.5 | 0.00 | 0.00 | 0.00 | 73 | 1019.1 |
| 20260905084019 | 17 | 269 | 8.0 | 14.5 | 0.00 | 0.00 | 0.00 | 74 | 1019.1 |
| 20260905083819 | 17 | 265 | 8.0 | 20.9 | 0.00 | 0.00 | 0.00 | 74 | 1019.1 |
| 20260905083619 | 17 | 262 | 8.0 | 20.9 | 0.00 | 0.00 | 0.00 | 74 | 1019.1 |
| 20260905083418 | 17 | 261 | 8.0 | 20.9 | 0.00 | 0.00 | 0.00 | 74 | 1019.1 |
| 20260905083219 | 17 | 260 | 8.0 | 20.9 | 0.00 | 0.00 | 0.00 | 74 | 1019.0 |
| 20260905082819 | 17 | 261 | 9.7 | 19.3 | 0.00 | 0.00 | 0.00 | 74 | 1018.9 |
| 20260905082618 | 17 | 261 | 8.0 | 19.3 | 0.00 | 0.00 | 0.00 | 74 | 1018.9 |
| 20260905082219 | 17 | 253 | 8.0 | 19.3 | 0.00 | 0.00 | 0.00 | 74 | 1019.0 |
| 20260905081819 | 17 | 240 | 6.4 | 14.5 | 0.00 | 0.00 | 0.00 | 74 | 1019.1 |
| 20260905081619 | 17 | 232 | 6.4 | 14.5 | 0.00 | 0.00 | 0.00 | 75 | 1019.1 |
| 20260905081418 | 17 | 229 | 6.4 | 14.5 | 0.00 | 0.00 | 0.00 | 76 | 1019.0 |
| 20260905081219 | 17 | 229 | 8.0 | 14.5 | 0.00 | 0.00 | 0.00 | 76 | 1018.9 |
| 20260905081019 | 17 | 227 | 8.0 | 12.9 | 0.00 | 0.00 | 0.00 | 77 | 1018.7 |
| 20260905080818 | 17 | 230 | 9.7 | 12.9 | 0.00 | 0.00 | 0.00 | 77 | 1018.7 |
| 20260905080619 | 17 | 233 | 9.7 | 17.7 | 0.00 | 0.00 | 0.00 | 78 | 1018.6 |
| 20260905080419 | 17 | 236 | 9.7 | 17.7 | 0.00 | 0.00 | 0.00 | 77 | 1018.5 |
| 20260905080218 | 17 | 240 | 9.7 | 17.7 | 0.00 | 0.00 | 0.00 | 77 | 1018.3 |
| 20260905080019 | 17 | 248 | 8.0 | 19.3 | 0.00 | 0.00 | 0.00 | 77 | 1018.2 |
| 20260905075819 | 17 | 251 | 8.0 | 19.3 | 0.00 | 0.00 | 0.00 | 77 | 1018.5 |
| 20260905075419 | 17 | 265 | 4.8 | 19.3 | 0.00 | 0.00 | 0.00 | 77 | 1018.8 |
| 20260905075219 | 17 | 270 | 3.2 | 19.3 | 0.00 | 0.00 | 0.00 | 77 | 1018.5 |
| 20260905075019 | 17 | 272 | 3.2 | 12.9 | 0.00 | 0.00 | 0.00 | 78 | 1018.3 |
| 20260905074818 | 17 | 274 | 3.2 | 8.0 | 0.00 | 0.00 | 0.00 | 78 | 1018.1 |
| 20260905074619 | 17 | 273 | 3.2 | 8.0 | 0.00 | 0.00 | 0.00 | 78 | 1017.9 |
| 20260905074419 | 17 | 261 | 3.2 | 6.4 | 0.00 | 0.00 | 0.00 | 78 | 1017.8 |
| 20260905074219 | 17 | 251 | 4.8 | 9.7 | 0.00 | 0.00 | 0.00 | 78 | 1017.7 |
| 20260905073819 | 17 | 219 | 4.8 | 12.9 | 0.00 | 0.00 | 0.00 | 78 | 1017.4 |
| 20260905073619 | 17 | 217 | 4.8 | 12.9 | 0.00 | 0.00 | 0.00 | 78 | 1017.4 |
| 20260905073419 | 17 | 211 | 4.8 | 12.9 | 0.00 | 0.00 | 0.00 | 78 | 1017.3 |
| 20260905073219 | 17 | 207 | 3.2 | 12.9 | 0.00 | 0.00 | 0.00 | 78 | 1017.3 |
| 20260905073018 | 17 | 202 | 3.2 | 12.9 | 0.00 | 0.00 | 0.00 | 78 | 1017.5 |
| 20260905072819 | 17 | 218 | 3.2 | 11.3 | 0.00 | 0.00 | 0.00 | 79 | 1017.6 |
| 20260905072419 | 17 | 233 | 4.8 | 11.3 | 0.00 | 0.00 | 0.00 | 79 | 1017.2 |
| 20260905072218 | 17 | 237 | 4.8 | 12.9 | 0.00 | 0.00 | 0.00 | 78 | 1017.2 |
| 20260905072019 | 17 | 249 | 4.8 | 14.5 | 0.00 | 0.00 | 0.00 | 78 | 1017.4 |
| 20260905071418 | 17 | 301 | 4.8 | 14.5 | 0.00 | 0.00 | 0.00 | 78 | 1017.6 |
| 20260905071219 | 17 | 323 | 4.8 | 14.5 | 0.00 | 0.00 | 0.00 | 78 | 1017.8 |
| 20260905071019 | 17 | 334 | 4.8 | 9.7 | 0.00 | 0.00 | 0.00 | 79 | 1017.9 |
| 20260905070819 | 17 | 333 | 4.8 | 9.7 | 0.00 | 0.00 | 0.00 | 79 | 1017.8 |
| 20260905070618 | 17 | 335 | 4.8 | 12.9 | 0.00 | 0.00 | 0.00 | 79 | 1017.8 |
| 20260905070419 | 17 | 337 | 4.8 | 12.9 | 0.00 | 0.00 | 0.00 | 80 | 1017.8 |
| 20260905070019 | 17 | 338 | 4.8 | 12.9 | 0.00 | 0.00 | 0.00 | 80 | 1017.9 |
| 20260905065819 | 17 | 339 | 4.8 | 12.9 | 0.00 | 0.00 | 0.00 | 81 | 1017.9 |
| 20260905065619 | 17 | 340 | 4.8 | 12.9 | 0.00 | 0.00 | 0.00 | 81 | 1017.9 |
| 20260905065419 | 17 | 332 | 4.8 | 12.9 | 0.00 | 0.00 | 0.00 | 81 | 1017.8 |
| 20260905065219 | 17 | 324 | 4.8 | 12.9 | 0.00 | 0.00 | 0.00 | 81 | 1017.8 |
| 20260905064818 | 17 | 296 | 3.2 | 11.3 | 0.00 | 0.00 | 0.00 | 81 | 1018.0 |
| 20260905064619 | 17 | 278 | 1.6 | 11.3 | 0.00 | 0.00 | 0.00 | 81 | 1018.0 |
| 20260905064419 | 17 | 257 | 1.6 | 11.3 | 0.00 | 0.00 | 0.00 | 81 | 1018.0 |
| 20260905064219 | 17 | 242 | 1.6 | 11.3 | 0.00 | 0.00 | 0.00 | 81 | 1018.2 |
| 20260905064019 | 17 | 227 | 1.6 | 8.0 | 0.00 | 0.00 | 0.00 | 81 | 1018.2 |
| 20260905063219 | 17 | 221 | 1.6 | 6.4 | 0.00 | 0.00 | 0.00 | 80 | 1018.0 |
| 20260905063019 | 17 | 221 | 1.6 | 6.4 | 0.00 | 0.00 | 0.00 | 80 | 1018.0 |
| 20260905062819 | 17 | 235 | 1.6 | 6.4 | 0.00 | 0.00 | 0.00 | 80 | 1017.9 |
| 20260905062618 | 17 | 285 | 1.6 | 6.4 | 0.00 | 0.00 | 0.00 | 80 | 1017.8 |
| 20260905062419 | 17 | 301 | 3.2 | 4.8 | 0.00 | 0.00 | 0.00 | 80 | 1017.7 |
| 20260905062218 | 17 | 302 | 3.2 | 11.3 | 0.00 | 0.00 | 0.00 | 80 | 1017.6 |
| 20260905062019 | 17 | 303 | 3.2 | 11.3 | 0.00 | 0.00 | 0.00 | 80 | 1017.5 |
| 20260905061818 | 17 | 314 | 1.6 | 11.3 | 0.00 | 0.00 | 0.00 | 80 | 1017.5 |
| 20260905061019 | 17 | 107 | 1.6 | 6.4 | 0.00 | 0.00 | 0.00 | 80 | 1017.2 |
| 20260905060819 | 17 | 90 | 3.2 | 6.4 | 0.00 | 0.00 | 0.00 | 80 | 1017.1 |
| 20260905060618 | 17 | 345 | 3.2 | 6.4 | 0.00 | 0.00 | 0.00 | 80 | 1017.0 |
| 20260905060419 | 17 | 329 | 3.2 | 6.4 | 0.00 | 0.00 | 0.00 | 80 | 1017.1 |
| 20260905060218 | 17 | 343 | 3.2 | 11.3 | 0.00 | 0.00 | 0.00 | 80 | 1017.2 |
| 20260905060019 | 17 | 358 | 3.2 | 11.3 | 0.00 | 0.00 | 0.00 | 80 | 1017.2 |
| 20260905055818 | 17 | 12 | 3.2 | 11.3 | 0.00 | 0.00 | 0.00 | 80 | 1017.2 |
| 20260905055618 | 17 | 23 | 3.2 | 11.3 | 0.00 | 0.00 | 0.00 | 80 | 1017.1 |
| 20260905055418 | 17 | 30 | 3.2 | 11.3 | 0.00 | 0.00 | 0.00 | 80 | 1017.0 |
| 20260905055219 | 17 | 35 | 3.2 | 8.0 | 0.00 | 0.00 | 0.00 | 80 | 1016.9 |
| 20260905055018 | 17 | 29 | 3.2 | 8.0 | 0.00 | 0.00 | 0.00 | 79 | 1016.8 |
| 20260905054619 | 17 | 38 | 4.8 | 8.0 | 0.00 | 0.00 | 0.00 | 80 | 1016.8 |
| 20260905054019 | 17 | 40 | 4.8 | 9.7 | 0.00 | 0.00 | 0.00 | 79 | 1016.9 |
| 20260905053818 | 17 | 32 | 4.8 | 11.3 | 0.00 | 0.00 | 0.00 | 79 | 1016.9 |
| 20260905053418 | 17 | 359 | 6.4 | 11.3 | 0.00 | 0.00 | 0.00 | 79 | 1016.9 |
| 20260905053218 | 17 | 342 | 6.4 | 12.9 | 0.00 | 0.00 | 0.00 | 78 | 1016.9 |
| 20260905052419 | 17 | 331 | 6.4 | 12.9 | 0.00 | 0.00 | 0.00 | 77 | 1017.2 |
| 20260905052218 | 17 | 331 | 6.4 | 14.5 | 0.00 | 0.00 | 0.00 | 77 | 1017.0 |
| 20260905052019 | 17 | 321 | 6.4 | 14.5 | 0.00 | 0.00 | 0.00 | 77 | 1017.0 |
| 20260905051818 | 18 | 314 | 6.4 | 14.5 | 0.00 | 0.00 | 0.00 | 76 | 1017.0 |
| 20260905051618 | 18 | 309 | 6.4 | 16.1 | 0.00 | 0.00 | 0.00 | 76 | 1017.0 |
| 20260905051419 | 18 | 307 | 6.4 | 16.1 | 0.00 | 0.00 | 0.00 | 75 | 1017.1 |
| 20260905051218 | 18 | 308 | 6.4 | 16.1 | 0.00 | 0.00 | 0.00 | 74 | 1016.9 |
| 20260905051018 | 18 | 315 | 6.4 | 16.1 | 0.00 | 0.00 | 0.00 | 73 | 1016.7 |
| 20260905050819 | 18 | 319 | 6.4 | 16.1 | 0.00 | 0.00 | 0.00 | 73 | 1016.6 |
| 20260905050618 | 18 | 329 | 6.4 | 12.9 | 0.00 | 0.00 | 0.00 | 72 | 1016.5 |
| 20260905050418 | 18 | 336 | 8.0 | 12.9 | 0.00 | 0.00 | 0.00 | 72 | 1016.4 |
| 20260905050218 | 18 | 340 | 9.7 | 14.5 | 0.00 | 0.00 | 0.00 | 71 | 1016.4 |
| 20260905050019 | 18 | 344 | 9.7 | 14.5 | 0.00 | 0.00 | 0.00 | 71 | 1016.4 |
| 20260905045818 | 18 | 345 | 11.3 | 14.5 | 0.00 | 0.00 | 0.00 | 71 | 1016.2 |
| 20260905045418 | 18 | 320 | 11.3 | 20.9 | 0.00 | 0.00 | 0.00 | 70 | 1015.9 |
| 20260905045218 | 18 | 314 | 11.3 | 20.9 | 0.00 | 0.00 | 0.00 | 69 | 1015.8 |
| 20260905045019 | 18 | 309 | 12.9 | 20.9 | 0.00 | 0.00 | 0.00 | 68 | 1016.1 |
| 20260905044819 | 18 | 313 | 12.9 | 20.9 | 0.00 | 0.00 | 0.00 | 68 | 1016.7 |
| 20260905044618 | 18 | 319 | 12.9 | 20.9 | 0.00 | 0.00 | 0.00 | 67 | 1016.7 |
| 20260905044418 | 18 | 327 | 14.5 | 17.7 | 0.00 | 0.00 | 0.00 | 66 | 1015.9 |
| 20260905044018 | 19 | 327 | 14.5 | 29.0 | 0.00 | 0.00 | 0.00 | 65 | 1015.4 |
| 20260905043818 | 19 | 321 | 16.1 | 29.0 | 0.00 | 0.00 | 0.00 | 64 | 1015.5 |
| 20260905043618 | 19 | 318 | 16.1 | 29.0 | 0.00 | 0.00 | 0.00 | 63 | 1015.4 |
| 20260905043418 | 20 | 316 | 16.1 | 29.0 | 0.00 | 0.00 | 0.00 | 63 | 1015.6 |
| 20260905043218 | 20 | 313 | 16.1 | 29.0 | 0.00 | 0.00 | 0.00 | 62 | 1015.7 |
| 20260905043018 | 20 | 312 | 14.5 | 27.4 | 0.00 | 0.00 | 0.00 | 62 | 1015.9 |
| 20260905042618 | 20 | 304 | 14.5 | 24.1 | 0.00 | 0.00 | 0.00 | 60 | 1015.8 |
| 20260905042418 | 20 | 299 | 12.9 | 24.1 | 0.00 | 0.00 | 0.00 | 60 | 1015.7 |
| 20260905042218 | 20 | 296 | 12.9 | 24.1 | 0.00 | 0.00 | 0.00 | 60 | 1015.4 |
| 20260905042018 | 20 | 299 | 11.3 | 22.5 | 0.00 | 0.00 | 0.00 | 60 | 1015.4 |
| 20260905041618 | 20 | 303 | 8.0 | 22.5 | 0.00 | 0.00 | 0.00 | 61 | 1015.1 |
| 20260905041418 | 20 | 304 | 6.4 | 22.5 | 0.00 | 0.00 | 0.00 | 62 | 1015.0 |
| 20260905041218 | 20 | 305 | 4.8 | 22.5 | 0.00 | 0.00 | 0.00 | 62 | 1015.0 |
| 20260905041018 | 20 | 302 | 4.8 | 19.3 | 0.00 | 0.00 | 0.00 | 62 | 1015.1 |
| 20260905040818 | 20 | 302 | 4.8 | 19.3 | 0.00 | 0.00 | 0.00 | 63 | 1015.1 |
| 20260905040618 | 20 | 316 | 4.8 | 12.9 | 0.00 | 0.00 | 0.00 | 64 | 1014.9 |
| 20260905040418 | 20 | 318 | 6.4 | 9.7 | 0.00 | 0.00 | 0.00 | 64 | 1014.9 |
| 20260905040218 | 20 | 309 | 8.0 | 11.3 | 0.00 | 0.00 | 0.00 | 64 | 1014.8 |
| 20260905040019 | 20 | 301 | 9.7 | 14.5 | 0.00 | 0.00 | 0.00 | 64 | 1014.7 |
| 20260905035818 | 20 | 298 | 9.7 | 16.1 | 0.00 | 0.00 | 0.00 | 64 | 1014.5 |
| 20260905035618 | 20 | 297 | 9.7 | 19.3 | 0.00 | 0.00 | 0.00 | 64 | 1014.7 |
| 20260905035418 | 20 | 298 | 9.7 | 19.3 | 0.00 | 0.00 | 0.00 | 63 | 1015.0 |
| 20260905035218 | 20 | 302 | 9.7 | 19.3 | 0.00 | 0.00 | 0.00 | 63 | 1014.9 |
| 20260905035018 | 20 | 308 | 9.7 | 19.3 | 0.00 | 0.00 | 0.00 | 62 | 1014.6 |
| 20260905034818 | 20 | 320 | 9.7 | 19.3 | 0.00 | 0.00 | 0.00 | 62 | 1014.3 |
| 20260905034418 | 20 | 334 | 9.7 | 19.3 | 0.00 | 0.00 | 0.00 | 63 | 1014.0 |
| 20260905034218 | 20 | 338 | 8.0 | 19.3 | 0.00 | 0.00 | 0.00 | 63 | 1013.8 |
| 20260905034018 | 20 | 341 | 8.0 | 19.3 | 0.00 | 0.00 | 0.00 | 64 | 1013.7 |
| 20260905033818 | 20 | 340 | 6.4 | 16.1 | 0.00 | 0.00 | 0.00 | 64 | 1013.7 |
| 20260905033618 | 20 | 338 | 6.4 | 14.5 | 0.00 | 0.00 | 0.00 | 65 | 1013.7 |
| 20260905033418 | 20 | 335 | 4.8 | 14.5 | 0.00 | 0.00 | 0.00 | 65 | 1013.7 |
| 20260905033218 | 20 | 333 | 4.8 | 14.5 | 0.00 | 0.00 | 0.00 | 66 | 1013.7 |
| 20260905033018 | 19 | 332 | 3.2 | 14.5 | 0.00 | 0.00 | 0.00 | 66 | 1013.7 |
| 20260905032818 | 19 | 331 | 3.2 | 14.5 | 0.00 | 0.00 | 0.00 | 66 | 1013.7 |
| 20260905032618 | 19 | 332 | 3.2 | 12.9 | 0.00 | 0.00 | 0.00 | 66 | 1013.6 |
| 20260905032418 | 20 | 328 | 3.2 | 12.9 | 0.00 | 0.00 | 0.00 | 66 | 1013.6 |
| 20260905032018 | 20 | 316 | 4.8 | 9.7 | 0.00 | 0.00 | 0.00 | 64 | 1013.5 |
| 20260905031818 | 20 | 316 | 6.4 | 9.7 | 0.00 | 0.00 | 0.00 | 64 | 1013.6 |
| 20260905031618 | 20 | 318 | 6.4 | 11.3 | 0.00 | 0.00 | 0.00 | 63 | 1013.6 |
| 20260905031418 | 20 | 320 | 8.0 | 11.3 | 0.00 | 0.00 | 0.00 | 63 | 1013.6 |
| 20260905031218 | 20 | 325 | 9.7 | 12.9 | 0.00 | 0.00 | 0.00 | 63 | 1013.6 |
| 20260905031018 | 20 | 330 | 9.7 | 14.5 | 0.00 | 0.00 | 0.00 | 63 | 1013.6 |
| 20260905030818 | 20 | 330 | 11.3 | 17.7 | 0.00 | 0.00 | 0.00 | 62 | 1013.5 |
| 20260905030617 | 20 | 330 | 11.3 | 20.9 | 0.00 | 0.00 | 0.00 | 62 | 1013.5 |
| 20260905030218 | 21 | 326 | 12.9 | 20.9 | 0.00 | 0.00 | 0.00 | 62 | 1013.2 |
| 20260905030018 | 21 | 323 | 12.9 | 20.9 | 0.00 | 0.00 | 0.00 | 61 | 1013.3 |
| 20260905025818 | 21 | 319 | 12.9 | 20.9 | 0.00 | 0.00 | 0.00 | 61 | 1013.4 |
| 20260905025618 | 21 | 315 | 12.9 | 25.7 | 0.00 | 0.00 | 0.00 | 61 | 1013.4 |
| 20260905025419 | 21 | 312 | 12.9 | 25.7 | 0.00 | 0.00 | 0.00 | 61 | 1013.4 |
| 20260905025218 | 21 | 309 | 14.5 | 25.7 | 0.00 | 0.00 | 0.00 | 61 | 1013.4 |
| 20260905024818 | 21 | 305 | 14.5 | 25.7 | 0.00 | 0.00 | 0.00 | 61 | 1013.4 |
| 20260905024218 | 21 | 304 | 16.1 | 25.7 | 0.00 | 0.00 | 0.00 | 61 | 1013.4 |
| 20260905023818 | 21 | 304 | 17.7 | 25.7 | 0.00 | 0.00 | 0.00 | 61 | 1013.3 |
| 20260905023618 | 21 | 304 | 17.7 | 25.7 | 0.00 | 0.00 | 0.00 | 61 | 1013.2 |
| 20260905023218 | 21 | 304 | 17.7 | 25.7 | 0.00 | 0.00 | 0.00 | 61 | 1013.0 |
| 20260905023018 | 21 | 303 | 17.7 | 29.0 | 0.00 | 0.00 | 0.00 | 61 | 1013.0 |
| 20260905022818 | 21 | 304 | 19.3 | 29.0 | 0.00 | 0.00 | 0.00 | 62 | 1013.0 |
| 20260905022618 | 21 | 305 | 19.3 | 29.0 | 0.00 | 0.00 | 0.00 | 62 | 1012.9 |
| 20260905022218 | 22 | 306 | 20.9 | 32.2 | 0.00 | 0.00 | 0.00 | 62 | 1012.8 |
| 20260905021818 | 22 | 305 | 20.9 | 33.8 | 0.00 | 0.00 | 0.00 | 62 | 1012.7 |
| 20260905021618 | 22 | 305 | 20.9 | 33.8 | 0.00 | 0.00 | 0.00 | 62 | 1012.7 |
| 20260905021417 | 22 | 303 | 20.9 | 33.8 | 0.00 | 0.00 | 0.00 | 62 | 1012.7 |
| 20260905021218 | 22 | 304 | 19.3 | 37.0 | 0.00 | 0.00 | 0.00 | 62 | 1012.9 |
| 20260905021018 | 22 | 305 | 17.7 | 37.0 | 0.00 | 0.00 | 0.00 | 62 | 1012.9 |
| 20260905020818 | 22 | 303 | 14.5 | 37.0 | 0.00 | 0.00 | 0.00 | 62 | 1012.8 |
| 20260905020618 | 22 | 297 | 11.3 | 37.0 | 0.00 | 0.00 | 0.00 | 62 | 1012.8 |
| 20260905020418 | 22 | 296 | 9.7 | 37.0 | 0.00 | 0.00 | 0.00 | 63 | 1012.8 |
| 20260905020218 | 22 | 290 | 6.4 | 37.0 | 0.00 | 0.00 | 0.00 | 63 | 1012.8 |
| 20260905020018 | 22 | 277 | 6.4 | 33.8 | 0.00 | 0.00 | 0.00 | 63 | 1012.7 |
| 20260905015817 | 22 | 259 | 4.8 | 33.8 | 0.00 | 0.00 | 0.00 | 64 | 1012.6 |
| 20260905015418 | 22 | 208 | 4.8 | 11.3 | 0.00 | 0.00 | 0.00 | 65 | 1012.3 |
| 20260905015218 | 22 | 191 | 4.8 | 11.3 | 0.00 | 0.00 | 0.00 | 65 | 1012.1 |
| 20260905015018 | 22 | 187 | 4.8 | 11.3 | 0.00 | 0.00 | 0.00 | 65 | 1012.0 |
| 20260905014818 | 22 | 185 | 4.8 | 11.3 | 0.00 | 0.00 | 0.00 | 65 | 1011.9 |
| 20260905014618 | 22 | 183 | 3.2 | 11.3 | 0.00 | 0.00 | 0.00 | 65 | 1011.8 |
| 20260905014218 | 22 | 185 | 3.2 | 8.0 | 0.00 | 0.00 | 0.00 | 66 | 1011.9 |
| 20260905014018 | 22 | 183 | 1.6 | 8.0 | 0.00 | 0.00 | 0.00 | 66 | 1011.8 |
| 20260905013818 | 22 | 183 | 1.6 | 6.4 | 0.00 | 0.00 | 0.00 | 66 | 1011.8 |
| 20260905013618 | 22 | 181 | 1.6 | 6.4 | 0.00 | 0.00 | 0.00 | 65 | 1011.7 |
| 20260905013418 | 22 | 177 | 1.6 | 6.4 | 0.00 | 0.00 | 0.00 | 65 | 1011.6 |
| 20260905013018 | 22 | 201 | 3.2 | 8.0 | 0.00 | 0.00 | 0.00 | 65 | 1011.6 |
| 20260905012817 | 22 | 200 | 3.2 | 8.0 | 0.00 | 0.00 | 0.00 | 64 | 1011.6 |
| 20260905012618 | 22 | 204 | 4.8 | 9.7 | 0.00 | 0.00 | 0.00 | 64 | 1011.6 |
| 20260905012218 | 22 | 201 | 4.8 | 9.7 | 0.00 | 0.00 | 0.00 | 64 | 1011.6 |
| 20260905011818 | 22 | 198 | 4.8 | 9.7 | 0.00 | 0.00 | 0.00 | 64 | 1011.7 |
| 20260905011618 | 22 | 193 | 4.8 | 9.7 | 0.00 | 0.00 | 0.00 | 63 | 1011.7 |
| 20260905011417 | 22 | 191 | 4.8 | 9.7 | 0.00 | 0.00 | 0.00 | 63 | 1011.6 |
| 20260905011218 | 22 | 190 | 4.8 | 9.7 | 0.00 | 0.00 | 0.00 | 62 | 1011.6 |
| 20260905011018 | 22 | 189 | 4.8 | 9.7 | 0.00 | 0.00 | 0.00 | 62 | 1011.5 |
| 20260905010818 | 22 | 190 | 4.8 | 9.7 | 0.00 | 0.00 | 0.00 | 63 | 1011.5 |
| 20260905010618 | 22 | 189 | 4.8 | 9.7 | 0.00 | 0.00 | 0.00 | 63 | 1011.5 |
| 20260905010418 | 22 | 188 | 4.8 | 9.7 | 0.00 | 0.00 | 0.00 | 62 | 1011.5 |
| 20260905010218 | 22 | 186 | 6.4 | 9.7 | 0.00 | 0.00 | 0.00 | 63 | 1011.4 |
| 20260905010017 | 22 | 188 | 6.4 | 9.7 | 0.00 | 0.00 | 0.00 | 63 | 1011.3 |
| 20260905005818 | 22 | 189 | 6.4 | 9.7 | 0.00 | 0.00 | 0.00 | 63 | 1011.3 |
| 20260905005618 | 22 | 190 | 6.4 | 9.7 | 0.00 | 0.00 | 0.00 | 63 | 1011.2 |
| 20260905005417 | 22 | 192 | 4.8 | 12.9 | 0.00 | 0.00 | 0.00 | 63 | 1011.2 |
| 20260905005018 | 22 | 195 | 4.8 | 12.9 | 0.00 | 0.00 | 0.00 | 64 | 1011.2 |
| 20260905004818 | 22 | 196 | 4.8 | 12.9 | 0.00 | 0.00 | 0.00 | 64 | 1011.2 |
| 20260905004618 | 21 | 196 | 4.8 | 12.9 | 0.00 | 0.00 | 0.00 | 64 | 1011.2 |
| 20260905004417 | 21 | 196 | 4.8 | 9.7 | 0.00 | 0.00 | 0.00 | 64 | 1011.1 |
| 20260905004218 | 21 | 197 | 4.8 | 9.7 | 0.00 | 0.00 | 0.00 | 64 | 1011.1 |
| 20260905004018 | 21 | 197 | 4.8 | 9.7 | 0.00 | 0.00 | 0.00 | 64 | 1011.1 |
| 20260905003618 | 21 | 198 | 4.8 | 9.7 | 0.00 | 0.00 | 0.00 | 64 | 1011.0 |
| 20260905003218 | 21 | 199 | 4.8 | 9.7 | 0.00 | 0.00 | 0.00 | 64 | 1011.1 |
| 20260905003017 | 21 | 203 | 3.2 | 9.7 | 0.00 | 0.00 | 0.00 | 64 | 1011.0 |
| 20260905002818 | 21 | 205 | 3.2 | 9.7 | 0.00 | 0.00 | 0.00 | 65 | 1011.0 |
| 20260905002618 | 21 | 208 | 3.2 | 9.7 | 0.00 | 0.00 | 0.00 | 65 | 1010.9 |
| 20260905002418 | 21 | 210 | 3.2 | 8.0 | 0.00 | 0.00 | 0.00 | 65 | 1011.0 |
| 20260905002018 | 21 | 211 | 3.2 | 6.4 | 0.00 | 0.00 | 0.00 | 65 | 1010.9 |
| 20260905001818 | 21 | 208 | 1.6 | 6.4 | 0.00 | 0.00 | 0.00 | 66 | 1010.9 |
| 20260905001618 | 21 | 208 | 1.6 | 6.4 | 0.00 | 0.00 | 0.00 | 66 | 1010.9 |
| 20260905001218 | 21 | 214 | 3.2 | 4.8 | 0.00 | 0.00 | 0.00 | 65 | 1010.8 |
| 20260905001018 | 21 | 213 | 3.2 | 4.8 | 0.00 | 0.00 | 0.00 | 65 | 1010.8 |
| 20260905000818 | 21 | 212 | 3.2 | 4.8 | 0.00 | 0.00 | 0.00 | 65 | 1010.8 |
| 20260905000219 | 21 | 203 | 1.6 | 4.8 | 0.00 | 0.00 | 0.00 | 66 | 1010.7 |
| 20260905000019 | 21 | 202 | 1.6 | 4.8 | 0.00 | 0.00 | 0.00 | 65 | 1010.6 |
| 20260904235818 | 21 | 204 | 1.6 | 4.8 | 0.00 | 0.00 | 0.00 | 64 | 1010.6 |
| 20260904235618 | 21 | 204 | 0.0 | 4.8 | 0.00 | 0.00 | 0.00 | 65 | 1010.6 |
| 20260904235418 | 21 | 210 | 0.0 | 4.8 | 0.00 | 0.00 | 0.00 | 65 | 1010.6 |
| 20260904235218 | 21 | 216 | 0.0 | 4.8 | 0.00 | 0.00 | 0.00 | 65 | 1010.6 |
| 20260904235017 | 21 | 219 | 1.6 | 4.8 | 0.00 | 0.00 | 0.00 | 64 | 1010.6 |
| 20260904234618 | 22 | 221 | 1.6 | 4.8 | 0.00 | 0.00 | 0.00 | 64 | 1010.6 |
| 20260904234418 | 22 | 226 | 3.2 | 4.8 | 0.00 | 0.00 | 0.00 | 63 | 1010.6 |
| 20260904234217 | 22 | 223 | 3.2 | 4.8 | 0.00 | 0.00 | 0.00 | 63 | 1010.6 |
| 20260904234018 | 22 | 218 | 3.2 | 6.4 | 0.00 | 0.00 | 0.00 | 62 | 1010.6 |
| 20260904233819 | 22 | 222 | 3.2 | 6.4 | 0.00 | 0.00 | 0.00 | 62 | 1010.6 |
| 20260904233418 | 22 | 219 | 4.8 | 6.4 | 0.00 | 0.00 | 0.00 | 62 | 1010.6 |
| 20260904233018 | 22 | 218 | 4.8 | 8.0 | 0.00 | 0.00 | 0.00 | 62 | 1010.6 |
| 20260904232818 | 22 | 213 | 4.8 | 9.7 | 0.00 | 0.00 | 0.00 | 61 | 1010.6 |
| 20260904232618 | 22 | 211 | 4.8 | 9.7 | 0.00 | 0.00 | 0.00 | 61 | 1010.6 |
| 20260904232418 | 22 | 211 | 4.8 | 9.7 | 0.00 | 0.00 | 0.00 | 61 | 1010.6 |
| 20260904232217 | 22 | 210 | 3.2 | 9.7 | 0.00 | 0.00 | 0.00 | 62 | 1010.6 |
| 20260904232018 | 22 | 211 | 3.2 | 9.7 | 0.00 | 0.00 | 0.00 | 62 | 1010.6 |
| 20260904231418 | 22 | 215 | 4.8 | 8.0 | 0.00 | 0.00 | 0.00 | 62 | 1010.6 |
| 20260904231217 | 22 | 212 | 4.8 | 8.0 | 0.00 | 0.00 | 0.00 | 62 | 1010.6 |
| 20260904230818 | 22 | 207 | 4.8 | 8.0 | 0.00 | 0.00 | 0.00 | 63 | 1010.6 |
| 20260904230617 | 22 | 205 | 3.2 | 8.0 | 0.00 | 0.00 | 0.00 | 64 | 1010.6 |
| 20260904230418 | 22 | 205 | 3.2 | 8.0 | 0.00 | 0.00 | 0.00 | 64 | 1010.6 |
| 20260904230218 | 22 | 206 | 3.2 | 8.0 | 0.00 | 0.00 | 0.00 | 65 | 1010.5 |
| 20260904230017 | 22 | 202 | 3.2 | 9.7 | 0.00 | 0.00 | 0.00 | 65 | 1010.6 |
| 20260904225818 | 22 | 202 | 3.2 | 9.7 | 0.00 | 0.00 | 0.00 | 64 | 1010.5 |
| 20260904225618 | 22 | 200 | 1.6 | 9.7 | 0.00 | 0.00 | 0.00 | 65 | 1010.6 |
| 20260904225418 | 21 | 200 | 1.6 | 9.7 | 0.00 | 0.00 | 0.00 | 65 | 1010.6 |
| 20260904225218 | 21 | 200 | 1.6 | 9.7 | 0.00 | 0.00 | 0.00 | 66 | 1010.6 |
| 20260904225018 | 21 | 209 | 1.6 | 8.0 | 0.00 | 0.00 | 0.00 | 65 | 1010.6 |
| 20260904224817 | 21 | 208 | 0.0 | 8.0 | 0.00 | 0.00 | 0.00 | 66 | 1010.6 |
| 20260904224617 | 21 | 217 | 0.0 | 3.2 | 0.00 | 0.00 | 0.00 | 65 | 1010.6 |
| 20260904224418 | 22 | 214 | 0.0 | 3.2 | 0.00 | 0.00 | 0.00 | 65 | 1010.6 |
| 20260904224217 | 22 | 214 | 0.0 | 3.2 | 0.00 | 0.00 | 0.00 | 65 | 1010.6 |
| 20260904223818 | 22 | 222 | 0.0 | 3.2 | 0.00 | 0.00 | 0.00 | 63 | 1010.5 |
| 20260904223417 | 22 | 229 | 1.6 | 3.2 | 0.00 | 0.00 | 0.00 | 63 | 1010.6 |
| 20260904223218 | 22 | 229 | 1.6 | 3.2 | 0.00 | 0.00 | 0.00 | 63 | 1010.6 |
| 20260904222617 | 22 | 221 | 3.2 | 8.0 | 0.00 | 0.00 | 0.00 | 63 | 1010.5 |
| 20260904222417 | 22 | 218 | 3.2 | 8.0 | 0.00 | 0.00 | 0.00 | 62 | 1010.6 |
| 20260904222218 | 22 | 215 | 3.2 | 8.0 | 0.00 | 0.00 | 0.00 | 63 | 1010.5 |
| 20260904221818 | 22 | 210 | 1.6 | 8.0 | 0.00 | 0.00 | 0.00 | 63 | 1010.5 |
| 20260904221618 | 22 | 206 | 1.6 | 6.4 | 0.00 | 0.00 | 0.00 | 63 | 1010.5 |
| 20260904221418 | 22 | 203 | 1.6 | 6.4 | 0.00 | 0.00 | 0.00 | 64 | 1010.5 |
| 20260904221217 | 22 | 199 | 1.6 | 4.8 | 0.00 | 0.00 | 0.00 | 64 | 1010.5 |
| 20260904221018 | 22 | 185 | 1.6 | 4.8 | 0.00 | 0.00 | 0.00 | 63 | 1010.6 |
| 20260904220618 | 22 | 179 | 3.2 | 8.0 | 0.00 | 0.00 | 0.00 | 63 | 1010.5 |
| 20260904220417 | 22 | 189 | 4.8 | 8.0 | 0.00 | 0.00 | 0.00 | 62 | 1010.5 |
| 20260904220217 | 22 | 191 | 4.8 | 9.7 | 0.00 | 0.00 | 0.00 | 62 | 1010.5 |
| 20260904220019 | 22 | 193 | 4.8 | 11.3 | 0.00 | 0.00 | 0.00 | 62 | 1010.5 |
| 20260904215817 | 22 | 197 | 4.8 | 11.3 | 0.00 | 0.00 | 0.00 | 62 | 1010.5 |
| 20260904215618 | 22 | 199 | 4.8 | 11.3 | 0.00 | 0.00 | 0.00 | 62 | 1010.5 |
| 20260904215418 | 22 | 198 | 4.8 | 11.3 | 0.00 | 0.00 | 0.00 | 62 | 1010.6 |
| 20260904215217 | 22 | 197 | 4.8 | 11.3 | 0.00 | 0.00 | 0.00 | 62 | 1010.5 |
| 20260904215018 | 22 | 196 | 4.8 | 11.3 | 0.00 | 0.00 | 0.00 | 62 | 1010.5 |
| 20260904214818 | 22 | 192 | 6.4 | 9.7 | 0.00 | 0.00 | 0.00 | 62 | 1010.5 |
| 20260904214618 | 22 | 186 | 6.4 | 11.3 | 0.00 | 0.00 | 0.00 | 62 | 1010.5 |
| 20260904214418 | 22 | 184 | 6.4 | 11.3 | 0.00 | 0.00 | 0.00 | 62 | 1010.5 |
| 20260904214217 | 22 | 184 | 4.8 | 11.3 | 0.00 | 0.00 | 0.00 | 62 | 1010.4 |
| 20260904214017 | 22 | 182 | 4.8 | 11.3 | 0.00 | 0.00 | 0.00 | 63 | 1010.4 |
| 20260904213818 | 22 | 183 | 3.2 | 11.3 | 0.00 | 0.00 | 0.00 | 63 | 1010.4 |
| 20260904213417 | 21 | 183 | 1.6 | 11.3 | 0.00 | 0.00 | 0.00 | 64 | 1010.4 |
| 20260904213218 | 21 | 181 | 1.6 | 11.3 | 0.00 | 0.00 | 0.00 | 64 | 1010.4 |
| 20260904212617 | 21 | 192 | 3.2 | 6.4 | 0.00 | 0.00 | 0.00 | 64 | 1010.5 |
| 20260904212417 | 21 | 192 | 3.2 | 6.4 | 0.00 | 0.00 | 0.00 | 64 | 1010.5 |
| 20260904212218 | 21 | 187 | 1.6 | 6.4 | 0.00 | 0.00 | 0.00 | 64 | 1010.5 |
| 20260904212017 | 21 | 184 | 1.6 | 6.4 | 0.00 | 0.00 | 0.00 | 63 | 1010.5 |
| 20260904211817 | 21 | 183 | 1.6 | 6.4 | 0.00 | 0.00 | 0.00 | 63 | 1010.5 |
| 20260904211618 | 21 | 178 | 0.0 | 6.4 | 0.00 | 0.00 | 0.00 | 63 | 1010.5 |
| 20260904211417 | 21 | 173 | 0.0 | 6.4 | 0.00 | 0.00 | 0.00 | 64 | 1010.5 |
| 20260904211218 | 21 | 183 | 0.0 | 6.4 | 0.00 | 0.00 | 0.00 | 64 | 1010.5 |
| 20260904211018 | 21 | 217 | 1.6 | 4.8 | 0.00 | 0.00 | 0.00 | 64 | 1010.6 |
| 20260904210817 | 21 | 217 | 1.6 | 3.2 | 0.00 | 0.00 | 0.00 | 64 | 1010.6 |
| 20260904210618 | 21 | 189 | 1.6 | 4.8 | 0.00 | 0.00 | 0.00 | 63 | 1010.7 |
| 20260904210418 | 21 | 190 | 3.2 | 4.8 | 0.00 | 0.00 | 0.00 | 63 | 1010.7 |
| 20260904210217 | 22 | 193 | 3.2 | 4.8 | 0.00 | 0.00 | 0.00 | 63 | 1010.7 |
| 20260904210018 | 22 | 183 | 3.2 | 4.8 | 0.00 | 0.00 | 0.00 | 62 | 1010.7 |
| 20260904205817 | 22 | 175 | 4.8 | 6.4 | 0.00 | 0.00 | 0.00 | 62 | 1010.7 |
| 20260904205218 | 22 | 165 | 4.8 | 8.0 | 0.00 | 0.00 | 0.00 | 61 | 1010.7 |
| 20260904205017 | 22 | 172 | 4.8 | 9.7 | 0.00 | 0.00 | 0.00 | 60 | 1010.7 |
| 20260904204817 | 22 | 186 | 4.8 | 9.7 | 0.00 | 0.00 | 0.00 | 60 | 1010.7 |
| 20260904204618 | 22 | 196 | 4.8 | 9.7 | 0.00 | 0.00 | 0.00 | 59 | 1010.8 |
| 20260904204417 | 22 | 203 | 4.8 | 9.7 | 0.00 | 0.00 | 0.00 | 59 | 1010.8 |
| 20260904204217 | 22 | 213 | 4.8 | 9.7 | 0.00 | 0.00 | 0.00 | 59 | 1010.8 |
| 20260904204018 | 22 | 219 | 4.8 | 9.7 | 0.00 | 0.00 | 0.00 | 59 | 1010.9 |
| 20260904203817 | 22 | 210 | 4.8 | 11.3 | 0.00 | 0.00 | 0.00 | 59 | 1010.9 |
| 20260904203018 | 23 | 205 | 3.2 | 11.3 | 0.00 | 0.00 | 0.00 | 59 | 1010.8 |
| 20260904202817 | 23 | 205 | 3.2 | 9.7 | 0.00 | 0.00 | 0.00 | 59 | 1010.8 |
| 20260904202418 | 23 | 202 | 3.2 | 9.7 | 0.00 | 0.00 | 0.00 | 59 | 1010.8 |
| 20260904202217 | 23 | 200 | 3.2 | 9.7 | 0.00 | 0.00 | 0.00 | 58 | 1010.8 |
| 20260904202018 | 23 | 203 | 4.8 | 9.7 | 0.00 | 0.00 | 0.00 | 57 | 1010.8 |
| 20260904201817 | 23 | 206 | 4.8 | 9.7 | 0.00 | 0.00 | 0.00 | 57 | 1010.8 |
| 20260904201617 | 23 | 212 | 4.8 | 9.7 | 0.00 | 0.00 | 0.00 | 57 | 1010.8 |
| 20260904201418 | 23 | 204 | 4.8 | 9.7 | 0.00 | 0.00 | 0.00 | 56 | 1010.8 |
| 20260904201017 | 23 | 204 | 4.8 | 9.7 | 0.00 | 0.00 | 0.00 | 56 | 1010.8 |
| 20260904200818 | 23 | 206 | 4.8 | 9.7 | 0.00 | 0.00 | 0.00 | 55 | 1010.8 |
| 20260904200617 | 23 | 209 | 4.8 | 11.3 | 0.00 | 0.00 | 0.00 | 55 | 1010.8 |
| 20260904200418 | 24 | 214 | 6.4 | 11.3 | 0.00 | 0.00 | 0.00 | 55 | 1010.8 |
| 20260904200017 | 24 | 206 | 6.4 | 11.3 | 0.00 | 0.00 | 0.00 | 54 | 1010.9 |